ECMWFFLT2_500_spd_132.txt.gz
Wind_Speed
15 14 14 14 12 10 11 13 17 19 18 18 20 24 26 26 29 32 30 27 27 26 24 24 24 24 24 23 23 22 21 21 22 24 22 19 20 25 30 32 31 29 28 27 28 28 26 25 24 22 23 23 23 24 24 23 23 22 22 21 20 19 18
15 16 15 15 15 15 12 11 14 18 20 22 21 22 26 26 27 32 31 27 26 26 25 24 24 24 24 23 23 22 22 21 21 21 22 21 20 22 27 34 35 32 32 30 28 29 28 26 25 25 25 25 26 26 26 25 25 25 24 24 23 21 20
16 16 16 14 15 17 16 14 15 16 17 18 21 23 23 21 21 24 27 29 27 24 23 23 24 25 24 23 23 23 21 21 20 18 19 21 22 20 21 31 37 34 33 34 31 30 30 29 28 28 28 28 27 27 27 27 27 27 27 25 24 23 23
16 15 15 14 14 15 16 17 18 19 18 18 18 21 22 22 19 17 20 27 28 24 22 23 26 26 25 24 23 23 22 21 19 18 18 20 20 19 17 22 34 36 35 36 35 33 31 31 30 30 30 30 29 29 28 28 29 29 28 27 26 26 25
13 15 16 16 16 15 14 15 15 16 19 20 20 21 22 23 23 21 21 24 28 26 22 23 27 28 27 27 25 24 23 21 20 19 19 20 20 19 16 16 25 35 40 40 38 35 32 31 32 31 31 31 30 30 29 29 30 29 29 28 28 27 26
12 15 16 17 19 19 17 17 16 15 16 18 20 21 21 23 26 28 27 26 28 28 24 25 29 29 28 27 26 25 23 22 22 21 21 21 20 21 19 16 18 26 39 44 39 35 33 32 32 32 31 30 30 30 30 29 29 28 28 29 28 28 27
15 16 17 17 19 20 20 21 20 19 18 17 19 20 20 22 26 29 31 31 30 27 25 28 32 31 29 27 25 25 25 24 23 21 21 22 21 21 21 21 19 19 29 40 40 35 33 33 34 33 32 31 31 30 30 29 29 28 29 29 29 29 29
19 19 18 18 19 19 21 23 21 21 20 19 21 23 22 22 24 27 30 33 33 29 26 31 36 34 29 26 26 26 26 25 24 21 20 20 21 22 22 23 24 20 21 31 38 38 36 35 35 34 33 34 33 32 31 30 30 30 30 31 30 30 30
16 18 18 18 19 19 21 22 21 21 22 22 23 25 25 25 27 27 28 32 33 28 27 32 39 38 30 26 25 27 26 25 25 24 22 20 19 21 23 24 25 25 23 24 29 35 38 38 36 34 35 36 35 33 33 32 32 32 32 32 31 30 30
10 12 16 17 18 19 19 20 20 20 22 24 25 26 26 28 30 29 29 31 30 26 26 31 38 38 31 26 25 25 25 24 24 24 23 23 21 21 23 24 25 26 26 23 21 23 29 35 38 39 37 36 36 35 35 34 33 34 33 32 32 31 30
13 14 17 19 19 20 20 19 19 20 21 23 26 27 27 28 29 30 30 30 29 28 26 28 33 34 29 25 24 25 24 22 23 23 23 23 23 23 24 25 26 25 25 26 24 21 20 24 32 40 41 38 37 37 36 35 34 34 34 33 32 31 30
17 18 19 20 21 22 22 21 20 20 21 22 25 27 26 26 26 26 27 27 27 28 25 23 27 32 29 25 25 24 22 22 22 22 23 24 24 24 25 25 26 27 27 27 28 26 24 22 26 37 44 42 40 39 37 36 35 34 34 35 33 32 31
16 16 17 18 19 21 21 21 21 21 21 22 23 24 25 25 26 25 24 24 25 26 24 20 21 27 28 26 26 24 23 23 23 23 24 26 26 26 26 26 26 27 28 29 30 30 28 24 24 32 45 45 41 41 39 36 36 35 34 34 35 34 32
14 15 16 17 18 19 20 20 20 20 21 22 22 23 23 24 27 26 24 25 26 25 23 21 21 24 24 23 25 25 24 24 25 27 27 28 30 29 27 26 26 28 29 29 31 31 30 27 22 24 42 51 43 41 42 37 35 37 36 35 35 35 33
12 13 15 17 18 19 19 18 18 18 20 21 22 23 23 23 24 25 24 24 26 26 24 24 24 23 22 22 25 26 26 25 27 30 29 27 28 29 27 24 25 27 28 28 29 30 31 29 21 14 26 46 47 41 39 37 35 36 36 36 36 35 34
12 12 13 16 18 19 19 18 17 18 19 20 21 23 24 24 24 24 23 24 26 26 26 26 26 25 24 23 25 26 27 26 27 30 30 23 19 20 21 22 23 25 26 27 27 27 28 28 25 16 12 25 38 42 39 35 34 35 36 36 37 36 36
14 13 13 14 14 16 18 18 17 18 18 20 21 23 24 25 25 24 22 23 25 26 27 27 26 28 28 25 23 24 26 27 27 29 31 28 21 19 18 20 21 22 23 25 26 26 25 24 24 21 16 13 19 32 39 37 34 34 35 36 36 37 38
15 13 12 12 13 15 17 17 16 17 18 20 21 22 23 24 26 25 22 22 24 26 27 27 24 24 27 28 24 23 24 28 28 28 32 32 28 24 21 20 20 20 21 23 24 25 24 22 20 19 18 16 13 14 25 32 33 34 36 37 38 40 41
15 14 13 12 13 15 16 15 16 17 18 19 21 22 23 24 25 25 23 22 23 24 25 28 26 22 21 25 27 27 26 25 27 28 29 31 29 25 23 21 20 19 20 20 21 22 23 22 19 17 17 18 16 12 11 15 20 24 27 29 32 35 40
14 14 14 13 14 15 15 15 17 18 18 19 21 22 23 23 24 25 24 22 22 22 22 26 29 28 24 22 27 31 29 25 25 25 26 27 27 25 23 21 20 19 18 17 18 19 20 21 20 18 17 17 18 17 14 13 13 14 16 17 19 21 26
14 14 15 14 14 15 15 15 16 17 17 18 20 22 23 22 22 24 24 22 21 21 21 22 26 30 30 26 26 28 28 27 27 25 24 25 26 25 24 22 20 19 18 17 16 17 18 19 20 19 18 18 19 19 17 16 17 17 17 16 14 12 13
14 14 15 15 15 15 15 14 14 15 16 17 18 19 21 21 21 22 23 23 21 20 20 21 22 25 27 29 29 28 26 26 27 26 24 23 24 25 24 23 21 20 19 18 17 16 17 17 18 17 17 17 18 19 18 18 19 20 21 20 18 14 12
14 14 15 15 16 16 15 14 14 14 15 15 16 16 18 19 20 21 22 22 21 20 19 20 21 23 24 26 28 29 27 24 24 24 24 24 23 23 24 23 21 21 20 19 18 18 17 16 16 16 16 15 17 18 18 18 19 20 22 22 22 19 17
14 15 16 17 17 17 15 14 14 13 14 14 14 15 16 17 18 19 20 20 21 21 20 19 20 22 24 24 24 26 27 26 24 22 22 24 23 23 23 23 22 21 21 20 19 18 17 17 17 18 17 17 17 19 19 19 19 20 21 22 23 22 20
16 15 17 18 18 17 15 14 13 13 14 14 14 15 16 17 18 19 19 19 20 20 19 20 20 21 23 23 23 24 25 26 27 25 24 25 25 24 24 24 24 23 22 22 21 20 19 19 20 20 20 19 19 19 20 21 20 20 21 22 23 22 21
17 16 17 18 19 18 16 14 14 13 13 14 14 15 16 17 17 17 17 18 18 18 18 19 20 21 22 22 23 24 24 24 23 23 25 27 27 27 26 25 25 25 24 23 23 22 21 21 21 21 21 21 21 20 20 21 22 22 22 22 23 23 23
17 17 17 18 19 18 16 15 14 14 14 15 14 13 14 16 16 16 16 16 16 17 18 18 19 21 21 22 23 24 25 25 24 23 24 27 27 27 27 26 25 25 24 24 24 23 23 23 22 21 20 21 21 21 20 21 22 22 23 23 24 25 25
18 18 18 18 18 18 16 16 15 14 14 15 15 14 14 15 15 15 15 14 14 16 17 17 18 18 19 22 24 25 26 27 27 26 26 27 28 27 27 27 27 26 25 25 25 24 24 24 22 21 21 21 21 21 21 21 21 22 23 24 25 26 27
18 18 19 18 17 17 16 16 15 15 15 15 15 15 15 14 14 14 14 13 12 13 15 16 16 15 16 18 22 25 28 29 29 29 29 29 29 29 29 29 28 27 27 26 25 25 25 25 24 22 21 21 22 22 22 22 22 22 23 24 25 26 27
19 19 19 19 18 17 17 16 15 15 15 15 15 15 15 15 13 13 12 12 11 11 13 15 16 14 13 14 17 21 25 27 28 29 29 29 29 29 29 29 28 28 27 27 26 26 26 25 25 23 22 22 22 23 23 23 23 23 24 24 25 26 27
20 19 19 19 18 17 16 16 15 15 15 15 16 16 15 15 13 12 12 11 11 10 11 13 14 13 12 12 13 16 18 21 22 24 26 27 28 28 27 27 27 27 26 26 26 25 25 25 24 24 23 22 23 23 24 24 25 25 24 25 25 26 26
20 20 19 19 17 16 15 16 16 15 14 14 14 15 15 14 13 12 12 11 11 11 11 11 12 13 13 12 12 13 15 16 17 18 20 22 23 24 24 24 24 24 24 24 24 24 24 24 24 24 23 23 23 24 25 25 26 26 26 26 26 26 26
20 20 19 18 16 15 16 16 15 13 12 12 12 13 13 14 13 13 12 12 12 11 11 11 11 11 12 12 12 12 13 14 14 14 16 17 18 19 20 20 21 22 22 22 22 23 23 23 23 23 24 23 23 24 25 26 27 27 27 27 27 27 27
20 19 18 17 16 15 16 16 14 12 11 11 11 11 12 12 12 12 12 12 11 11 11 11 11 11 11 11 11 11 11 11 11 12 12 13 14 15 16 17 18 19 20 20 21 23 23 24 24 24 24 24 24 25 25 26 27 28 28 28 29 29 28
20 18 17 16 16 15 15 15 15 13 12 11 11 11 11 11 11 11 11 10 10 10 11 11 11 11 10 10 11 11 10 10 10 11 11 12 12 13 14 15 16 16 17 19 20 22 23 24 24 25 24 25 25 26 27 27 28 28 29 29 30 30 30
19 18 17 17 16 15 15 15 14 13 12 11 11 11 11 10 10 10 9 9 9 9 9 9 10 10 9 9 10 10 10 10 10 10 11 11 12 12 13 13 14 14 15 17 19 21 22 23 23 24 24 25 25 26 27 28 28 29 29 30 31 31 32
20 19 19 17 16 15 14 13 13 13 12 12 12 12 11 11 10 10 10 10 9 9 8 8 8 9 9 9 9 9 10 10 10 10 11 11 11 12 12 13 13 14 15 16 17 19 19 20 21 21 22 23 24 26 27 27 28 28 29 29 30 31 32

ECMWFFLT2_500_spd_135.txt.gz
Wind_Speed
14 12 13 13 10 6 4 4 4 5 10 13 12 11 12 17 21 19 19 25 30 29 28 27 26 27 28 28 28 26 23 22 21 20 19 18 16 17 22 28 30 27 24 25 25 24 24 23 23 24 24 24 24 23 21 19 19 18 18 18 17 17 17
11 11 11 11 13 12 7 3 6 9 12 12 13 13 9 12 19 20 18 20 22 25 28 27 24 24 26 29 31 28 25 22 20 20 19 17 16 16 17 21 25 27 27 26 26 26 26 24 25 25 25 26 27 25 23 21 20 20 19 18 18 18 18
10 10 10 9 12 14 12 10 10 11 10 9 11 14 12 10 14 17 16 16 20 24 26 25 23 23 24 26 29 29 27 23 19 19 20 18 16 15 17 19 19 23 28 29 28 28 28 27 26 26 26 27 28 27 26 24 21 20 20 20 20 20 19
6 7 6 4 7 11 15 16 11 11 13 8 9 14 13 12 12 12 12 14 23 28 27 25 24 24 25 25 27 28 29 26 19 17 20 21 18 14 15 18 18 19 23 29 31 28 29 29 26 25 26 26 27 26 25 25 24 23 22 21 22 21 21
7 4 6 5 8 11 11 12 11 12 12 8 10 13 12 13 13 11 13 18 26 28 27 26 24 24 26 27 27 26 27 27 22 18 19 21 21 18 16 16 17 15 16 25 34 32 30 29 28 29 30 29 26 24 24 25 26 26 25 24 24 23 22
7 9 11 6 10 14 12 11 12 13 11 9 12 11 10 12 12 12 14 19 26 27 25 25 23 24 27 27 29 26 24 26 25 23 21 21 23 23 19 17 16 15 13 18 30 36 34 32 31 32 33 31 29 27 28 28 26 26 26 25 26 26 23
9 12 11 8 11 14 16 15 15 15 13 12 12 12 12 13 13 14 13 17 28 29 25 24 24 25 28 28 29 27 25 26 26 26 25 23 24 24 23 21 17 17 15 15 21 30 36 36 34 33 33 32 31 31 31 29 27 26 25 25 27 28 26
14 13 12 13 14 15 16 17 18 19 17 16 16 16 17 17 17 17 14 18 27 27 23 24 25 26 28 29 30 28 26 27 27 27 26 24 24 24 24 24 21 19 19 17 17 22 31 37 37 36 36 35 32 32 32 30 29 28 26 26 29 29 28
9 11 11 11 13 15 16 16 18 19 18 19 20 19 20 21 21 20 17 19 24 25 25 25 26 28 29 29 30 28 27 27 28 29 28 26 25 25 24 24 23 23 22 21 20 19 24 33 38 37 37 38 35 33 32 31 30 29 28 28 29 28 29
6 10 13 12 12 12 12 14 18 20 19 20 21 21 22 23 24 24 24 24 24 24 25 26 27 30 32 32 31 30 28 28 28 29 29 27 25 25 25 23 23 24 24 24 23 21 21 26 34 36 35 37 37 35 34 34 32 30 29 28 28 28 29
13 16 18 17 16 13 11 13 16 19 20 20 21 22 23 25 25 25 28 29 27 25 26 27 27 28 30 33 33 31 29 28 29 29 29 26 22 20 21 21 21 23 24 26 26 24 22 20 26 34 35 36 36 36 36 36 34 33 31 30 30 29 29
18 19 19 18 18 18 18 17 18 20 21 20 21 22 24 26 26 26 29 29 29 30 28 24 23 24 27 31 33 32 30 30 29 29 29 27 21 18 18 20 22 23 25 27 28 27 24 21 21 26 31 34 36 37 38 37 36 35 33 31 31 30 29
19 20 19 19 19 19 20 20 20 21 21 21 22 22 25 27 26 28 30 28 28 31 28 21 18 19 23 28 31 31 31 32 32 29 27 26 22 20 19 20 22 23 24 27 28 28 27 26 23 22 23 25 27 32 37 40 38 36 34 33 32 32 31
18 18 18 18 18 19 20 19 19 20 20 21 22 23 25 27 26 27 30 30 29 28 28 26 23 19 20 24 28 30 31 35 36 31 28 26 23 22 20 19 22 23 24 26 27 26 26 26 27 26 24 22 21 23 30 37 40 38 36 35 34 34 33
17 18 17 16 17 17 17 18 18 19 19 20 21 22 24 24 26 27 28 31 32 27 26 27 25 22 21 22 24 26 30 36 37 32 31 30 29 27 24 23 24 24 25 26 27 25 23 23 25 28 28 26 24 22 25 32 41 43 39 37 36 36 36
13 15 16 15 16 16 16 17 18 18 19 20 19 20 21 21 24 27 27 28 30 26 24 25 24 23 22 22 23 24 26 33 34 31 32 33 30 28 28 27 27 26 25 26 25 24 23 22 23 26 28 27 25 24 24 29 40 47 45 42 40 38 38
6 9 14 15 15 15 15 17 18 17 19 19 17 17 17 17 20 24 25 26 26 24 24 24 23 22 22 23 24 22 23 28 30 29 29 29 27 27 28 29 28 26 23 23 22 23 23 22 22 24 27 28 27 26 25 26 35 47 49 44 41 39 39
8 10 15 15 15 15 16 17 17 16 17 16 16 17 17 17 19 21 22 24 24 23 24 23 21 21 22 24 24 24 24 25 27 27 27 27 28 30 31 31 31 29 24 22 21 22 22 22 22 22 23 25 27 27 25 23 25 41 50 45 40 39 40
13 13 14 14 16 17 18 18 17 16 16 16 17 19 19 19 21 21 21 22 22 22 23 23 22 21 22 24 24 25 26 25 24 26 28 30 31 32 31 30 30 29 26 23 22 22 21 20 20 20 20 21 23 25 26 23 19 27 43 46 42 39 38
19 17 15 16 17 18 19 19 18 16 16 16 17 19 19 20 21 21 21 22 21 21 21 23 23 22 22 24 24 23 24 28 29 27 29 34 35 33 32 29 25 23 22 21 19 18 18 18 17 17 17 17 18 21 24 25 21 18 25 35 39 38 37
21 18 17 18 18 19 22 22 19 17 16 15 16 17 17 20 21 20 19 20 20 20 20 21 21 21 22 24 24 22 21 29 35 28 25 35 38 36 35 29 20 17 18 19 17 14 14 14 14 15 15 14 15 16 19 22 23 21 18 18 22 27 28
20 19 18 17 15 17 22 22 18 16 15 14 15 16 17 19 20 19 18 19 19 18 19 20 20 21 21 22 24 25 23 28 34 29 21 31 36 35 32 24 18 17 17 16 14 12 11 11 12 13 13 13 13 14 15 17 20 23 23 19 16 16 17
20 20 19 17 15 19 22 21 19 17 16 15 15 17 18 19 20 19 18 17 16 17 18 19 19 20 21 20 21 26 28 28 29 26 22 26 28 27 26 22 19 19 19 17 15 13 11 11 11 12 12 12 13 13 13 15 17 19 22 22 20 19 19
21 21 20 17 18 21 21 20 19 18 16 16 16 17 18 19 19 19 19 18 18 17 17 17 19 20 20 20 19 22 27 29 27 24 23 26 27 26 25 24 22 21 20 19 18 16 14 13 13 12 11 11 12 13 14 15 16 17 20 22 22 21 21
20 20 20 19 20 21 20 20 20 18 17 17 17 17 19 19 20 19 19 18 19 19 17 16 18 19 19 20 19 19 21 24 25 25 23 24 27 28 27 26 24 23 22 21 20 18 18 16 15 14 13 13 13 14 14 15 16 17 18 20 21 22 22
20 18 19 20 21 21 20 19 19 17 17 19 18 17 18 19 19 20 18 17 17 18 17 16 17 18 18 18 18 19 20 20 21 23 23 23 25 27 27 26 25 24 23 22 21 21 20 19 18 17 16 15 15 15 15 15 16 17 17 19 21 23 23
22 20 19 21 23 23 20 18 18 18 19 20 18 18 18 18 18 19 19 17 16 15 15 16 17 17 17 18 18 18 19 20 21 23 24 25 26 27 25 23 24 25 24 23 23 22 22 21 21 20 18 17 16 16 16 17 17 17 17 18 20 22 24
22 21 22 22 23 22 19 18 19 19 19 20 19 18 18 18 18 19 19 18 17 16 16 16 17 16 16 17 18 19 19 20 22 23 24 25 28 29 28 27 26 27 26 25 25 24 24 23 22 21 20 19 18 17 18 19 19 19 18 19 20 21 23
22 23 23 22 21 20 18 18 19 19 18 18 18 18 18 18 18 19 18 18 17 17 16 16 16 16 16 16 18 19 20 20 22 23 23 23 24 26 28 28 29 28 28 28 27 25 24 24 23 22 21 20 19 19 20 21 22 21 21 21 21 21 22
22 23 24 22 21 20 18 17 18 18 18 18 17 18 18 18 19 19 18 17 15 14 14 14 15 15 16 17 17 18 19 21 22 23 23 23 23 24 25 26 27 28 28 28 28 26 25 24 23 22 22 21 20 20 20 22 24 24 24 24 23 23 24
23 24 24 23 22 21 19 18 19 19 18 18 18 18 18 18 18 18 18 16 15 13 12 13 14 14 15 16 16 16 16 19 22 25 26 26 26 27 27 26 27 27 28 28 28 28 27 25 24 23 22 21 21 21 21 23 25 26 26 26 26 26 26
25 26 24 22 22 21 19 19 19 19 19 19 18 18 18 17 17 17 17 16 15 13 12 12 12 12 13 14 14 14 13 14 18 22 24 25 26 27 28 29 28 28 29 29 28 28 27 26 25 24 22 22 22 22 23 23 24 26 27 27 27 28 27
25 26 25 23 23 22 20 19 19 19 18 17 17 17 16 16 16 16 16 15 14 13 12 12 12 11 11 11 12 12 11 10 12 14 18 20 21 23 25 26 27 28 28 28 27 27 26 26 25 24 23 22 22 23 24 24 24 25 26 27 28 28 28
21 24 24 23 23 23 21 20 19 18 17 16 15 15 14 14 14 15 15 15 14 14 13 12 12 11 11 11 11 10 10 9 9 10 12 14 15 17 19 21 23 24 25 26 25 25 25 24 24 23 23 23 23 23 24 24 23 23 24 26 26 27 27
21 22 22 21 22 22 21 20 19 17 16 15 14 14 14 13 13 13 14 14 14 13 13 12 12 12 11 11 11 10 10 10 10 10 10 11 12 13 14 15 17 18 20 21 21 21 21 21 22 22 23 22 22 23 23 23 23 23 23 24 25 26 26
23 22 20 19 20 21 20 19 18 17 15 15 15 14 14 13 13 12 12 12 12 12 12 12 12 12 12 11 11 11 11 11 11 11 10 10 11 11 12 12 13 14 15 16 16 17 18 18 19 20 21 21 22 21 22 22 23 23 23 23 24 24 25
24 23 21 20 21 21 19 18 17 17 16 15 15 15 14 13 13 12 11 11 11 11 11 11 11 11 11 11 11 11 11 11 11 11 11 10 10 11 11 11 11 12 12 13 13 14 14 15 16 17 18 18 19 19 20 20 21 22 23 23 23 23 24

ECMWFFLT2_500_spd_138.txt.gz
Wind_Speed
10 10 9 9 9 9 10 4 5 6 6 7 12 13 14 14 9 9 19 24 22 21 23 24 24 23 22 19 18 20 23 24 20 17 17 16 15 15 16 18 22 27 28 25 24 23 21 20 20 19 19 19 18 18 18 17 16 15 14 13 13 12 12
7 6 8 8 7 8 13 9 10 9 4 7 13 14 12 12 7 6 15 22 20 21 23 23 22 21 21 23 24 21 22 24 25 21 16 13 13 13 15 16 18 25 30 28 25 23 22 22 20 19 20 20 21 21 20 18 17 17 15 15 14 14 14
6 4 6 7 4 7 14 10 6 8 8 5 7 6 5 6 7 6 9 19 23 24 25 24 23 20 19 21 25 25 23 22 23 24 20 15 13 13 15 16 15 19 26 29 27 24 22 21 20 21 22 21 21 22 21 20 19 18 17 17 16 16 16
4 3 1 1 3 6 14 12 5 6 9 6 5 6 7 7 9 9 9 17 24 24 26 27 26 25 21 20 21 23 24 22 21 22 23 20 14 11 13 15 14 13 17 23 27 26 25 24 23 24 24 21 21 22 21 21 21 20 19 19 18 18 18
5 2 3 2 1 7 11 10 7 6 7 9 8 6 9 9 6 8 11 16 21 23 26 28 27 27 24 21 22 23 23 23 21 21 24 24 20 14 13 14 15 13 13 16 21 24 26 28 27 26 24 22 22 23 22 21 22 22 22 21 19 19 19
4 11 14 7 8 10 8 6 8 12 17 19 17 12 10 8 6 11 13 15 22 25 26 27 27 28 28 26 25 25 25 23 23 23 24 26 26 22 16 15 17 17 15 15 16 18 23 27 29 27 25 25 24 23 23 23 23 22 22 22 21 21 20
11 17 13 11 16 14 11 9 8 14 18 16 14 12 11 14 16 18 16 16 24 26 26 26 24 24 26 27 26 26 27 26 23 24 25 24 25 23 18 16 17 18 17 16 15 15 17 22 28 30 28 26 26 27 27 25 24 23 23 24 24 23 21
18 15 11 12 17 16 15 13 9 11 13 11 11 11 12 13 17 19 18 18 26 27 25 26 23 21 20 21 22 23 26 26 22 20 21 22 22 22 20 16 16 17 17 16 17 16 14 16 24 32 31 28 27 29 29 26 24 24 24 24 22 20 20
8 8 12 13 12 12 12 8 5 10 16 17 15 14 14 14 14 17 20 22 27 26 24 25 25 25 23 22 22 21 22 25 23 18 17 19 20 20 18 15 15 16 17 15 15 15 13 13 17 26 31 32 31 30 28 25 23 23 22 23 22 20 19
7 10 16 14 11 9 6 3 4 10 15 17 19 18 16 15 15 19 21 23 28 26 24 27 26 25 25 25 24 23 22 24 22 18 17 19 20 19 18 16 16 17 16 14 13 14 14 14 15 17 23 30 34 34 31 26 24 25 25 26 26 24 23
14 19 23 21 17 12 7 6 7 10 12 13 18 20 19 19 21 23 23 24 28 26 25 28 28 25 24 23 22 24 26 26 24 20 18 20 21 22 20 18 19 20 17 13 14 16 16 16 17 17 18 22 29 34 34 31 29 30 31 30 30 29 27
16 20 21 20 20 18 15 14 14 16 16 14 17 19 21 23 25 26 26 25 27 27 27 29 31 30 28 27 25 25 25 27 28 24 21 21 23 23 21 18 19 21 20 17 16 17 18 18 20 20 18 18 22 27 31 33 34 35 35 34 33 32 30
14 20 23 22 23 22 20 21 20 22 22 21 21 21 23 26 26 26 27 25 27 29 29 29 31 31 30 30 29 27 24 24 27 27 25 24 25 24 23 23 22 22 23 23 21 20 21 21 22 21 20 19 21 22 25 29 34 37 38 38 37 35 32
12 16 21 23 24 22 22 23 22 22 24 25 24 25 26 27 26 27 27 26 27 29 29 29 30 29 28 27 27 28 27 25 25 27 27 27 28 26 25 26 28 27 25 25 25 23 24 24 24 25 22 20 20 20 19 22 27 32 35 38 39 38 35
16 15 17 19 21 20 21 23 21 21 23 23 23 27 27 25 27 28 28 27 27 27 29 30 30 29 29 27 25 26 28 27 25 26 27 28 30 29 26 25 26 27 26 27 26 24 26 26 26 27 25 22 21 21 21 21 21 24 28 34 38 39 38
15 15 15 17 20 21 20 19 20 21 22 21 22 25 23 22 25 26 26 26 24 25 27 29 29 28 27 27 27 26 25 25 24 25 28 30 31 31 27 24 25 27 27 26 26 24 24 26 26 26 26 25 23 23 23 24 23 22 23 26 31 35 37
9 9 10 12 15 17 17 17 19 20 21 21 22 23 21 21 24 23 23 23 21 23 25 26 27 26 25 26 26 25 24 24 23 24 27 30 31 32 32 30 29 28 26 23 22 22 22 24 25 24 24 23 23 22 23 25 27 26 24 23 23 26 32
11 5 10 12 11 12 15 17 17 18 19 19 19 19 20 21 22 22 22 22 21 22 23 24 24 25 24 25 24 23 23 23 23 25 27 30 31 32 34 35 32 28 26 23 21 20 20 21 22 22 21 20 20 21 22 24 27 28 27 26 24 23 27
14 10 11 14 12 14 17 16 17 19 20 18 17 18 20 20 20 21 21 22 22 22 23 23 23 23 23 23 22 22 22 23 24 25 27 29 32 33 34 34 31 29 27 26 23 20 19 19 20 19 19 17 17 18 19 21 24 27 28 29 28 26 27
18 17 14 12 12 16 18 17 18 20 19 18 17 19 20 19 19 21 22 21 21 23 23 23 22 21 21 22 22 23 23 24 25 27 27 28 31 35 35 34 32 31 31 31 28 23 20 19 19 18 16 15 14 15 16 17 19 22 25 27 28 28 27
20 21 18 14 13 15 17 17 17 17 18 20 20 20 21 19 18 21 22 21 22 22 22 22 21 20 20 21 23 24 24 25 26 28 29 29 30 33 35 34 33 33 35 34 30 25 23 20 18 17 15 14 13 12 11 13 14 15 18 20 22 25 25
16 16 16 15 14 14 16 17 15 13 16 19 19 19 21 20 19 21 21 21 22 21 20 20 19 18 18 18 20 22 24 25 26 28 29 29 31 32 31 32 34 35 38 38 32 27 27 23 19 16 14 13 12 9 7 8 9 11 12 12 15 19 21
14 13 14 14 14 18 22 21 19 17 17 17 18 19 21 19 19 21 21 21 22 21 20 19 18 17 17 17 19 21 22 23 25 27 28 29 31 32 29 30 35 37 37 37 32 28 27 23 19 15 12 12 11 11 11 11 10 11 10 9 12 16 17
19 17 15 12 13 20 23 22 23 23 20 19 20 21 22 20 18 20 21 21 20 20 19 19 16 15 16 17 18 19 19 20 22 25 28 28 29 30 28 29 34 36 34 32 28 25 23 20 17 14 11 11 11 12 13 12 12 12 10 9 12 15 16
20 22 20 14 15 21 22 21 23 23 19 20 21 22 23 22 19 19 21 22 21 19 18 18 17 16 16 16 18 18 17 19 20 22 26 27 26 26 27 26 27 29 30 29 25 22 20 18 16 14 12 12 11 11 11 10 10 11 10 9 9 10 13
17 21 20 16 19 25 25 23 25 23 19 20 20 20 22 23 21 20 20 20 20 19 17 17 17 17 16 15 15 16 17 19 20 20 22 24 23 23 25 25 22 20 22 23 21 20 19 17 16 15 14 14 13 13 12 11 11 11 12 13 12 11 12
15 19 19 18 22 28 27 24 24 22 19 20 20 19 21 22 21 20 20 19 20 19 18 17 16 15 14 13 14 15 17 19 21 21 21 21 21 22 23 22 21 21 22 22 22 21 20 18 18 17 17 17 16 15 14 13 12 13 14 15 15 15 14
12 16 21 24 27 29 27 25 24 21 19 20 21 20 21 22 21 21 20 20 20 19 19 18 16 14 12 12 14 15 16 18 20 22 22 20 19 20 21 20 20 21 23 23 23 22 21 20 20 20 19 19 18 18 17 16 15 15 16 16 17 17 16
15 18 23 28 29 29 28 26 24 21 19 20 21 21 21 22 21 20 19 20 20 19 19 18 16 14 13 12 13 14 15 16 18 20 21 20 19 19 20 21 21 22 22 22 22 22 22 22 22 22 22 22 21 20 20 18 17 17 17 18 19 19 19
19 20 21 23 26 28 26 24 22 21 20 19 20 20 20 21 21 19 18 18 19 18 18 18 17 15 13 12 12 13 13 14 16 18 20 20 20 21 22 22 23 24 24 24 23 23 24 25 24 24 24 24 23 23 21 20 20 19 19 20 21 21 22
21 23 22 21 24 27 27 24 22 21 21 19 19 19 19 20 20 20 19 18 17 17 17 16 16 15 14 11 11 11 12 13 14 16 19 20 20 22 23 25 26 27 28 28 28 28 28 28 27 26 26 25 25 24 23 22 21 21 21 21 22 23 24
23 25 24 24 25 27 27 25 22 22 22 21 20 20 19 20 20 19 19 19 17 17 17 16 15 15 14 12 11 10 12 13 14 14 16 19 21 23 24 25 26 28 29 30 30 31 31 31 30 28 27 26 26 25 24 23 22 22 22 22 23 24 24
23 23 23 25 26 27 27 26 24 23 23 21 21 20 19 19 19 19 18 17 17 16 16 15 15 14 14 13 11 11 11 13 14 14 15 17 20 22 23 25 25 26 27 28 28 29 29 30 30 29 28 28 28 27 26 25 24 23 22 22 23 24 25
20 21 21 23 25 25 27 27 25 24 23 22 21 20 19 18 19 18 17 16 16 15 15 15 14 13 13 12 11 11 12 12 13 14 13 14 16 19 21 22 24 25 26 28 28 28 28 28 28 29 29 29 28 27 26 25 25 24 22 22 22 23 24
20 21 21 21 22 23 25 25 24 23 23 22 20 19 18 19 18 17 16 16 15 14 14 14 14 12 11 11 11 12 12 13 13 13 13 12 13 14 16 17 19 21 23 26 28 29 29 28 28 28 28 28 27 26 25 25 24 23 22 21 21 21 22
24 24 21 21 21 22 22 23 22 21 21 20 19 19 19 19 18 17 16 16 15 14 13 13 13 11 11 10 11 13 13 13 14 13 13 12 12 12 13 13 14 16 18 19 22 25 26 27 27 26 26 26 25 24 23 22 22 22 21 20 20 20 20
26 25 23 21 22 23 22 21 20 20 19 19 19 19 19 18 18 17 16 15 14 14 13 12 12 11 10 10 11 12 13 14 14 13 13 13 13 12 12 12 12 13 14 15 16 18 20 21 21 21 22 22 21 20 19 19 19 19 19 19 19 19 19

ECMWFFLT2_500_spd_141.txt.gz
Wind_Speed
9 7 6 12 13 8 12 16 11 11 11 6 10 12 13 13 12 13 16 15 13 14 16 17 18 17 17 15 16 18 17 14 12 13 14 14 14 14 16 21 24 25 25 24 23 22 20 19 18 18 19 20 19 18 17 15 14 13 12 11 11 11 11
7 4 5 9 4 5 13 12 9 15 16 11 12 15 15 12 11 15 16 16 16 16 17 18 17 17 16 15 16 17 18 19 16 15 15 16 17 15 14 15 20 23 24 24 24 24 24 21 19 19 21 21 20 19 18 17 16 15 15 13 12 12 12
3 3 6 8 1 7 12 3 6 16 16 12 7 8 15 13 9 13 15 14 14 13 13 15 17 17 17 16 17 16 16 18 20 19 19 19 18 17 15 12 14 18 19 21 24 25 26 24 21 21 22 20 19 18 19 19 18 16 15 14 14 13 13
5 5 4 9 5 11 15 6 5 8 9 12 5 3 13 15 9 12 16 19 18 13 11 13 15 15 15 15 16 17 16 17 18 17 16 16 16 18 18 14 12 14 15 19 22 24 26 26 23 21 21 21 20 20 21 21 20 18 16 15 14 14 15
4 6 1 8 6 9 13 13 11 5 8 16 11 6 11 11 11 15 17 20 20 16 15 14 14 15 14 14 15 15 15 15 15 14 13 15 15 17 18 17 13 11 12 16 18 20 23 25 25 22 22 22 22 22 21 20 20 19 18 17 15 15 16
9 7 6 8 8 11 13 14 17 16 18 18 12 12 14 12 15 21 22 23 23 20 18 16 17 17 16 15 14 13 14 14 14 13 14 15 16 17 18 18 16 14 13 13 14 16 18 22 26 25 24 24 22 22 21 19 19 21 21 21 19 17 17
18 13 7 7 9 15 17 15 17 21 21 19 16 17 18 18 20 23 24 25 25 22 21 20 20 18 16 15 13 11 12 13 12 12 14 15 15 17 19 20 20 19 18 16 14 16 18 21 25 27 28 27 24 23 22 19 21 24 23 22 21 20 18
18 12 9 10 11 14 17 16 15 14 15 18 21 23 23 24 25 25 24 24 24 22 22 22 20 19 17 15 13 12 13 14 12 12 13 15 16 16 17 20 22 22 21 19 17 18 21 22 22 24 27 29 28 26 25 23 24 25 24 21 21 23 21
18 12 10 14 17 13 13 13 6 5 9 14 18 22 23 24 25 26 28 28 26 23 22 21 19 19 18 16 15 17 18 18 15 13 13 16 18 18 18 20 23 23 23 22 21 21 21 20 21 21 24 28 30 28 28 27 26 25 24 22 23 25 24
22 19 15 16 18 10 5 8 7 2 8 14 17 20 22 24 24 23 26 28 27 24 23 22 22 21 19 17 18 18 19 17 14 13 13 15 19 20 19 21 24 25 25 24 23 23 21 20 20 20 22 27 31 31 29 28 28 26 25 24 25 25 24
20 21 18 19 21 12 5 7 10 13 15 14 16 20 20 22 23 22 23 24 23 23 22 23 23 22 20 19 19 20 20 18 15 13 14 15 19 20 19 19 22 25 25 23 23 23 23 23 23 21 21 23 27 29 29 29 29 28 26 27 28 26 25
17 19 17 19 23 19 16 15 14 18 19 16 18 20 18 18 21 23 22 20 19 20 21 22 23 23 22 22 21 21 22 22 20 18 16 15 18 21 20 18 18 20 22 21 18 19 21 23 25 24 23 22 22 23 25 26 29 30 29 28 29 27 26
20 20 19 22 25 25 26 25 20 19 19 18 21 23 21 21 23 23 22 20 21 21 21 23 24 23 23 23 22 21 22 23 23 22 21 17 16 20 23 23 20 19 21 21 18 17 18 20 22 23 23 22 21 19 19 20 22 26 30 32 32 30 28
21 22 22 23 24 26 29 29 26 24 21 20 23 25 26 28 27 23 22 22 23 23 23 24 25 25 24 23 22 21 22 23 23 22 22 21 19 19 22 25 25 22 23 25 24 21 19 19 21 22 22 22 21 20 19 19 19 20 24 29 33 35 34
20 21 22 20 18 20 22 24 26 25 23 20 21 23 26 28 25 22 23 23 23 24 26 26 26 26 26 24 22 21 21 23 24 22 22 22 21 21 20 22 26 27 26 27 27 26 24 22 22 24 24 24 24 22 20 19 18 18 19 21 25 30 32
19 19 19 17 17 18 18 20 22 22 21 19 19 22 25 25 21 19 20 20 21 23 25 25 25 24 24 23 22 21 22 23 24 23 22 22 22 22 21 21 24 27 27 26 26 26 27 27 25 24 24 24 25 23 20 18 18 18 19 20 19 20 21
21 22 18 12 14 16 16 18 20 19 18 18 20 23 23 22 21 20 20 19 21 23 23 22 22 22 22 22 21 21 22 22 23 23 22 22 22 22 23 23 23 25 25 25 26 25 25 27 26 24 23 23 23 23 22 21 21 21 21 21 19 19 20
22 25 20 14 13 15 15 17 18 16 15 18 22 23 20 18 19 20 19 20 21 22 21 21 21 21 21 21 20 20 21 21 23 23 22 22 22 22 23 24 24 24 25 26 26 25 23 24 24 23 22 22 22 23 23 22 22 22 21 20 19 20 23
20 24 22 17 15 17 19 19 19 17 18 21 23 23 21 19 18 17 17 18 19 20 20 20 20 21 21 21 21 21 20 21 22 23 23 22 21 22 24 24 24 24 26 27 27 27 26 25 25 24 23 22 22 22 22 21 20 19 20 20 18 18 20
18 23 22 18 13 14 17 19 20 20 20 22 22 23 24 21 17 16 16 16 18 19 20 20 20 21 21 21 21 21 21 21 22 23 23 22 21 21 23 24 25 26 27 28 28 29 28 26 25 25 24 23 22 20 19 18 17 16 17 18 18 18 19
17 24 25 22 18 15 16 18 19 17 18 21 21 22 24 22 18 18 18 18 18 19 20 21 20 21 21 20 20 20 21 21 21 22 24 23 22 22 22 24 26 28 30 31 30 30 30 29 27 25 24 23 21 18 17 16 16 16 16 16 16 17 18
19 25 29 27 20 17 18 21 20 18 17 18 18 19 21 21 20 19 19 18 18 19 20 21 21 20 20 19 18 18 19 20 20 21 23 24 23 22 22 23 26 28 31 33 31 30 31 31 28 25 24 23 21 19 18 17 16 16 15 15 15 14 15
22 24 29 30 24 20 21 23 24 23 19 16 16 16 17 18 19 19 18 17 18 18 19 20 20 19 19 18 17 17 17 18 19 20 22 24 24 23 21 23 26 28 31 33 33 32 32 32 29 27 25 23 22 22 21 18 17 15 14 14 12 10 10
19 22 26 30 28 25 23 23 28 27 20 16 18 19 19 19 20 19 19 20 20 19 19 19 20 19 18 18 17 16 16 17 18 18 20 22 24 23 22 22 25 28 30 31 32 34 36 33 30 29 29 26 23 22 21 18 17 16 15 14 12 9 9
16 20 23 24 24 24 22 23 27 26 21 19 21 21 21 21 20 20 20 20 21 20 20 20 20 19 18 17 16 16 16 17 17 17 18 20 21 21 21 22 23 27 28 28 28 34 38 37 34 32 30 28 25 21 19 18 17 16 16 16 15 14 12
14 18 21 22 22 24 23 23 24 23 20 21 21 20 20 20 19 20 20 20 21 21 20 20 19 19 18 17 16 16 15 15 16 16 16 18 19 18 19 20 22 25 26 26 28 33 38 37 36 35 32 28 25 21 19 18 17 17 17 17 16 16 15
14 15 19 22 24 27 26 25 26 23 21 22 22 21 21 18 17 20 21 20 20 20 19 19 19 19 19 18 16 15 14 13 15 15 16 17 18 17 16 17 19 22 24 24 27 33 41 40 38 37 32 27 24 21 20 19 18 17 18 17 17 17 17
16 15 17 19 23 26 26 25 25 23 21 22 22 22 21 18 17 20 21 21 20 19 19 19 19 19 19 17 16 15 14 13 13 14 15 17 17 17 16 15 17 19 21 21 22 28 35 38 37 34 30 27 25 23 22 21 19 18 16 16 16 16 17
18 17 17 18 20 22 23 21 21 21 21 21 23 23 23 20 18 19 20 20 20 19 19 19 19 18 18 17 16 15 14 13 13 13 14 15 16 17 16 16 17 19 20 22 24 26 26 26 28 29 28 27 26 24 22 21 19 18 17 16 16 16 17
22 19 19 20 20 21 21 18 18 20 21 22 23 23 22 20 19 19 19 19 19 19 19 19 19 18 18 17 15 14 13 12 12 12 13 15 16 16 16 17 18 20 21 22 24 26 24 22 24 27 28 27 25 23 21 20 19 19 18 18 18 18 18
25 22 20 21 22 23 22 17 15 18 21 23 22 22 22 20 18 17 18 18 18 19 19 19 19 18 18 17 15 13 12 11 11 12 12 14 15 16 16 17 18 20 22 22 22 23 22 20 21 24 25 25 24 22 21 20 20 19 20 20 20 20 20
26 24 24 23 23 25 25 20 16 18 21 22 21 21 22 21 19 18 19 19 19 19 19 19 18 17 17 16 15 13 12 11 11 11 11 12 13 14 15 16 18 20 21 22 22 22 23 23 23 24 24 24 24 23 22 22 22 21 21 21 21 21 22
24 24 23 22 23 26 27 23 21 22 23 23 22 22 22 22 21 20 19 18 19 19 18 17 16 16 16 15 14 14 12 10 10 10 10 10 11 12 14 15 16 19 21 22 23 24 25 26 26 26 26 26 26 26 25 25 24 23 23 23 22 22 23
23 22 22 23 24 25 25 23 22 22 22 23 23 23 23 23 23 22 19 18 18 18 17 16 16 15 15 15 14 13 12 11 10 10 10 10 10 11 12 13 14 16 19 22 25 26 27 29 30 30 30 29 29 29 28 27 27 26 25 24 23 23 24
23 21 21 21 21 21 22 22 20 20 20 22 23 22 22 22 23 22 20 17 17 17 16 16 16 15 15 14 13 12 12 11 10 10 10 10 10 11 12 13 13 14 17 20 24 26 27 29 30 31 31 31 31 30 29 29 28 28 27 26 25 24 23
23 22 22 21 19 19 20 20 19 18 19 21 22 21 20 21 22 21 19 16 16 16 15 15 15 14 14 14 12 11 11 10 10 10 10 10 10 11 11 12 12 13 14 16 20 24 25 26 27 29 29 29 29 28 28 27 27 27 27 27 25 23 22
26 25 24 23 21 20 21 21 21 20 19 20 21 20 19 20 20 20 18 16 15 15 15 15 14 13 13 13 12 11 11 10 10 10 10 10 10 10 11 12 12 12 13 13 15 19 21 22 23 25 27 28 28 28 27 26 25 25 25 25 23 22 20